CZ-6A DEB, 56667

Orbit data source: Space-Track

CZ-6A DEB, 56667 is space debris in SSO originally from a launch on Fri, 11 Nov 2022 UTC launched from the Taiyaun Space Center, China (TSC). Debris objects in space refer to the collection of defunct objects orbiting the Earth. Examples of debris include non-operational satellites, rocket bodies, and fragments generated from explosions, collisions, or faulty payload assembly.

Loading next visibility...
Identifier
56667, 2022-151AGT
Orbit
SSO
Country
Flag of CNCN / PRC
Related business
Manufacturer
SAST
Mission
Spacecraft
Bus & Motor
Unknown
Mass
Unknown
Launch date (UTC)
2022-11-11 (3 years ago)
Launch vehicle
Unknown
Launch site
Taiyaun Space Center, China (TSC)
Object type
Payload
Rocket body
Debris
Shape & HBR
Unknown shape, 0.1 m
Radar Cross Section
Small (<0.1 m²)

Expand to show TLE details & history
Last TLE update: 20 hours ago

TLE from 20 hours ago
0 CZ-6A DEB
1 56667U 22151AGT 25349.16734800  .00003819  00000-0  85305-3 0  9998
2 56667  98.8216  62.9652 0110848 158.9127 201.6691 14.53657398145030
Epoch: 2025-12-15T04:00Z
TLE epoch observation values (Epoch: 2025-12-15T04:00:58.867Z)
Latitude
-0.00002°
Longitude
-81.34988°
Altitude
789.874 km
Speed
7.42 km/s
True Right ascension
04h 11m 51s
True Declination
0° 00' 00"
Sunlit
Object was in full shadow at epoch
Visualization orbit readout
Latitude
Unknown
Longitude
Unknown
Altitude
Unknown
Speed
Unknown
Apparent Right ascension
Unknown
Apparent Declination
Unknown
Sunlit
N/A
Visualization observer readout
Local Sidereal Time
22:46:58
Azimuth
Unknown
Elevation
Unknown
Doppler factor
Unknown
Orbital elements
Apogee altitude
789.427 km
Perigee altitude
632.267 km
Semi-major axis
7,088.984 km
Eccentricity
0.01108
Inclination
98.8216°
RAAN
62.9652°
Arg. of periapsis
158.9127°
True anomaly
201.20605°
Mean anomaly
201.6691°
Eccentric anomaly
201.43698°
Mean motion
3.63636 °/min
Orbital period
99 mins
BSTAR
0.00085305
Loading maneuver chart data...
Computing Atmospheric mass density...

Documentation

Showing up to 5 results
|